Simultaneous Nadir Overpasses (SNOs) Predictions

Prediction of SNOs between METOP-C and LANDSAT-8 Satellite Orbit:

Table of predicted SNOs for the next 14.0 days since TLE Epoch: 4/24/2021
Index Date (METOP-C) Time (METOP-C) Lat,Lon (METOP-C) SZA (METOP-C ) Date (LANDSAT-8) Time (LANDSAT-8) Lat,Lon (LANDSAT-8) SZA (LANDSAT-8 ) Distance(km) Time Diff (sec)
1 04/26/2021 13:10:32 81.09, 21.26 69.47 04/26/2021 13:10:58 81.09, 21.07 69.46 3.28 26
2 04/26/2021 14:01:11 -81.11,-171.02 110.50 04/26/2021 14:00:24 -81.11,-170.97 110.51 0.88 47
3 04/29/2021 08:44:54 81.08, 87.37 68.56 04/29/2021 08:45:11 81.08, 87.34 68.56 0.80 17
4 04/29/2021 09:35:33 -81.10,-104.87 111.40 04/29/2021 09:34:37 -81.10,-104.68 111.40 3.19 56
5 05/02/2021 04:19:16 81.08, 153.84 67.73 05/02/2021 04:19:24 81.09, 153.93 67.74 1.64 8
6 05/02/2021 05:09:54 -81.11, -37.99 112.18 05/02/2021 05:08:50 -81.11, -38.07 112.22 1.46 64
7 05/04/2021 23:03:00 -81.04, 51.78 113.23 05/04/2021 23:04:14 -81.02, 51.79 113.21 1.73 74
8 05/04/2021 23:53:37 81.10,-139.35 66.97 05/04/2021 23:53:37 81.09,-139.51 66.95 2.86 0
9 05/05/2021 00:44:16 -81.12, 28.51 112.97 05/05/2021 00:43:03 -81.12, 28.51 113.00 0.37 73
10 05/07/2021 18:37:20 -81.05, 118.62 113.94 05/07/2021 18:38:25 -81.05, 118.69 113.91 1.20 65



Historial Predications of SNOs between METOP-C and LANDSAT-8
